Meteo Giornale » Osservazioni meteo Italia » Bari-Palese Macchie

ore: 17:20 - Osservazioni Meteo Bari-Palese Macchie
Lat. 41° 8' N Lon. 16° 47' E Alt. 34 metri s.l.m.

nuvoloso Europe/Rome

27 °C

Nuvoloso

Temp. 24 Ore

19 °C

28 °C

Nord

7.4 Km/h

Dew point 17 °C

Umidità 54 %

Visibilità  10 Km

Il sole sorge alle ore 06:02

Il sole tramonta alle ore 19:51

Data e Ora Cielo e Fenomeni T °C DP °C Um. % Pres. hPa Vis. km Vento km/h
Oggi h: 17:20 nuvoloso Nuvoloso 27 17 54 1013 10 N 7.4
Oggi h: 16:50 nuvoloso Nuvoloso 26 17 57 1013 10 S/SO 11.1
Oggi h: 16:20 nuvoloso Nuvoloso 24 17 64 1013 10 S 16.7
Oggi h: 15:50 poco_nuvoloso Poco Nuvoloso 27 21 69 1013 10 NE 13
Oggi h: 15:20 poco_nuvoloso Poco Nuvoloso 27 20 65 1013 10 N/NE 13
Oggi h: 14:50 poco_nuvoloso Poco Nuvoloso 28 20 61 1012 10 N/NE 14.8
Oggi h: 14:20 poco_nuvoloso Poco Nuvoloso 28 20 61 1012 10 N 14.8
Oggi h: 13:50 poco_nuvoloso Poco Nuvoloso 27 20 65 1013 10 N/NE 13
Oggi h: 13:20 poco_nuvoloso Poco Nuvoloso 27 20 65 1013 10 N 13
Oggi h: 12:50 poco_nuvoloso Poco Nuvoloso 28 20 61 1012 10 N 14.8
Oggi h: 12:20 poco_nuvoloso Poco Nuvoloso 27 20 65 1012 10 N 14.8
Oggi h: 11:50 poco_nuvoloso Poco Nuvoloso 27 20 65 1013 10 N 14.8
Oggi h: 11:20 poco_nuvoloso Poco Nuvoloso 27 20 65 1013 10 N 13
Oggi h: 10:50 poco_nuvoloso Poco Nuvoloso 26 20 69 1013 10 N 14.8
Oggi h: 10:20 sereno Sereno 26 21 73 1013 10 N/NO 14.8
Oggi h: 09:50 sereno Sereno 26 21 73 1012 10 N/NO 14.8
Oggi h: 09:20 sereno Sereno 25 20 73 1012 10 NO 11.1
Oggi h: 08:50 poco_nuvoloso Poco Nuvoloso 24 20 78 1012 10 O/NO 9.3
Oggi h: 08:20 poco_nuvoloso Poco Nuvoloso 24 20 78 1012 10 O/NO 9.3
Oggi h: 07:50 poco_nuvoloso Poco Nuvoloso 22 20 88 1012 10 O 9.3
Oggi h: 07:20 poco_nuvoloso Poco Nuvoloso 21 20 94 1012 10 O 7.4
Oggi h: 06:50 poco_nuvoloso Poco Nuvoloso 20 19 93 1012 10 O/SO 7.4
Oggi h: 06:20 poco_nuvoloso Poco Nuvoloso 19 18 93 1012 10 O/SO 7.4
Oggi h: 05:50 poco_nuvoloso Poco Nuvoloso 19 18 93 1012 10 O/SO 7.4
Oggi h: 05:20 poco_nuvoloso Poco Nuvoloso 19 19 100 1012 10 O 7.4
Oggi h: 04:50 sereno Sereno 19 19 100 1012 10 O 7.4
Oggi h: 04:20 sereno Sereno 20 19 93 1012 10 N 5.5
Oggi h: 03:50 sereno Sereno 20 19 93 1012 10 O 7.4
Oggi h: 03:20 sereno Sereno 20 19 93 1012 10 O 9.3
Oggi h: 02:50 sereno Sereno 20 19 93 1012 10 O 7.4
Oggi h: 02:20 sereno Sereno 20 19 93 1012 10 O/SO 7.4
Oggi h: 01:50 sereno Sereno 20 19 93 1012 10 SO 7.4
Oggi h: 01:20 poco_nuvoloso Poco Nuvoloso 20 19 93 1013 10 O/SO 7.4
Oggi h: 00:50 poco_nuvoloso Poco Nuvoloso 20 19 93 1013 10 N 3.7
Oggi h: 00:20 poco_nuvoloso Poco Nuvoloso 20 19 93 1012 10 N 5.5
Ieri h: 23:50 poco_nuvoloso Poco Nuvoloso 20 19 93 1013 10 O/SO 7.4
Ieri h: 22:50 poco_nuvoloso Poco Nuvoloso 20 20 100 1012 10 O/NO 9.3
Ieri h: 22:20 nuvoloso Nuvoloso 21 20 94 1012 10 O 7.4
Ieri h: 21:50 nuvoloso Nuvoloso 21 20 94 1012 10 O 7.4
Ieri h: 21:20 nuvoloso_temporali Temporale nelle Vicinanze 21 20 94 1012 10 O 7.4
Ieri h: 20:50 nuvoloso_temporali Temporale nelle Vicinanze 21 20 94 1012 10 O 7.4
Ieri h: 20:20 nuvoloso_temporali Temporale nelle Vicinanze 21 20 94 1012 8 O/SO 7.4
Ieri h: 19:50 nuvoloso_temporali Temporale con Pioggia Debole 21 20 94 1012 6 N 11.1
Ieri h: 19:20 nuvoloso_temporali Temporale nelle Vicinanze 22 20 88 1012 3 O 11.1
Ieri h: 18:50 nuvoloso Nuvoloso 22 20 88 1012 10 O/NO 11.1
Ieri h: 18:20 coperto_pioggia Pioviggine Leggera 22 21 94 1012 10 NO 9.3
Ieri h: 17:50 coperto_pioggia Pioviggine Leggera 22 21 94 1011 10 N 9.3